Time,TemperatureF,DewpointF,PressureIn,WindDirection,WindDirectionDegrees,WindSpeedMPH,WindSpeedGustMPH,Humidity,HourlyPrecipIn,Conditions,Clouds,dailyrainin,SoftwareType,DateUTC
2013-06-01 00:04:00,68.0,40.8,30.09,NW,307,0.0,3.1,37,0.00,,,0.00,VWS V12.08,2013-06-01 04:04:00,
2013-06-01 00:10:00,68.0,41.5,30.12,South,176,0.0,3.1,38,0.00,,,0.00,VWS V12.08,2013-06-01 04:10:00,
2013-06-01 00:16:00,68.0,41.5,30.12,NNW,337,0.0,3.1,38,0.00,,,0.00,VWS V12.08,2013-06-01 04:16:00,
2013-06-01 00:20:00,68.0,41.5,30.12,West,264,0.0,3.1,38,0.00,,,0.00,VWS V12.08,2013-06-01 04:20:00,
2013-06-01 00:31:00,68.0,41.5,30.12,South,170,0.0,2.2,38,0.00,,,0.00,VWS V12.08,2013-06-01 04:31:00,
2013-06-01 00:35:00,67.8,42.0,30.12,South,187,0.0,2.2,39,0.00,,,0.00,VWS V12.08,2013-06-01 04:35:00,
2013-06-01 00:40:00,67.8,42.0,30.12,WNW,303,2.2,4.0,39,0.00,,,0.00,VWS V12.08,2013-06-01 04:40:00,
2013-06-01 00:45:00,67.8,42.0,30.12,WSW,246,0.0,2.2,39,0.00,,,0.00,VWS V12.08,2013-06-01 04:45:00,
2013-06-01 00:55:00,67.6,42.5,30.09,NW,318,0.0,3.1,40,0.00,,,0.00,VWS V12.08,2013-06-01 04:55:00,
2013-06-01 01:04:00,67.6,42.5,30.09,NE,34,0.0,3.1,40,0.00,,,0.00,VWS V12.08,2013-06-01 05:04:00,
2013-06-01 01:10:00,67.6,43.1,30.09,SW,232,0.0,3.6,41,0.00,,,0.00,VWS V12.08,2013-06-01 05:10:00,
2013-06-01 01:16:00,67.6,43.1,30.09,WSW,254,3.1,3.6,41,0.00,,,0.00,VWS V12.08,2013-06-01 05:16:00,
2013-06-01 01:25:00,67.5,44.2,30.09,WNW,283,3.1,4.0,43,0.00,,,0.00,VWS V12.08,2013-06-01 05:25:00,
2013-06-01 01:31:00,67.5,43.6,30.09,WSW,245,0.0,4.0,42,0.00,,,0.00,VWS V12.08,2013-06-01 05:31:00,
2013-06-01 01:40:00,67.3,43.4,30.09,NNW,345,0.0,4.0,42,0.00,,,0.00,VWS V12.08,2013-06-01 05:40:00,
2013-06-01 01:46:00,67.3,43.4,30.09,WNW,289,0.0,2.2,42,0.00,,,0.00,VWS V12.08,2013-06-01 05:46:00,
2013-06-01 01:55:00,67.1,43.3,30.09,WNW,286,0.0,3.1,42,0.00,,,0.00,VWS V12.08,2013-06-01 05:55:00,
2013-06-01 02:04:00,67.1,43.9,30.09,WSW,256,0.0,3.1,43,0.00,,,0.00,VWS V12.08,2013-06-01 06:04:00,
2013-06-01 02:10:00,66.9,43.7,30.09,SW,236,0.0,0.0,43,0.00,,,0.00,VWS V12.08,2013-06-01 06:10:00,
2013-06-01 02:16:00,66.7,42.9,30.09,SSW,206,2.7,3.1,42,0.00,,,0.00,VWS V12.08,2013-06-01 06:16:00,
2013-06-01 02:25:00,66.6,43.4,30.09,SSW,207,0.0,2.2,43,0.00,,,0.00,VWS V12.08,2013-06-01 06:25:00,
2013-06-01 02:31:00,66.4,43.2,30.09,West,261,0.0,4.0,43,0.00,,,0.00,VWS V12.08,2013-06-01 06:31:00,
2013-06-01 02:40:00,66.2,43.1,30.09,NNW,327,2.2,4.0,43,0.00,,,0.00,VWS V12.08,2013-06-01 06:40:00,
2013-06-01 02:46:00,66.0,43.5,30.09,WSW,243,0.0,2.7,44,0.00,,,0.00,VWS V12.08,2013-06-01 06:46:00,
2013-06-01 02:55:00,65.7,43.2,30.09,WNW,293,0.0,3.1,44,0.00,,,0.00,VWS V12.08,2013-06-01 06:55:00,
2013-06-01 03:04:00,65.7,43.8,30.09,NNW,330,0.0,3.6,45,0.00,,,0.00,VWS V12.08,2013-06-01 07:04:00,
2013-06-01 03:11:00,65.5,43.6,30.09,WNW,300,0.0,3.6,45,0.00,,,0.00,VWS V12.08,2013-06-01 07:11:00,
2013-06-01 03:16:00,65.3,43.4,30.09,West,259,0.0,3.6,45,0.00,,,0.00,VWS V12.08,2013-06-01 07:16:00,
2013-06-01 03:26:00,65.3,43.4,30.09,NW,323,2.7,2.7,45,0.00,,,0.00,VWS V12.08,2013-06-01 07:26:00,
2013-06-01 03:31:00,65.3,44.0,30.09,NW,316,0.0,3.1,46,0.00,,,0.00,VWS V12.08,2013-06-01 07:31:00,
2013-06-01 03:41:00,65.1,43.8,30.09,WNW,288,0.0,3.1,46,0.00,,,0.00,VWS V12.08,2013-06-01 07:41:00,
2013-06-01 03:46:00,65.1,43.8,30.09,WNW,291,0.0,3.1,46,0.00,,,0.00,VWS V12.08,2013-06-01 07:46:00,
2013-06-01 03:56:00,65.1,43.8,30.09,NW,315,0.0,3.1,46,0.00,,,0.00,VWS V12.08,2013-06-01 07:56:00,
2013-06-01 04:04:00,65.1,44.4,30.09,WNW,286,0.0,3.1,47,0.00,,,0.00,VWS V12.08,2013-06-01 08:04:00,
2013-06-01 04:11:00,64.9,44.8,30.09,WNW,288,0.0,2.7,48,0.00,,,0.00,VWS V12.08,2013-06-01 08:11:00,
2013-06-01 04:16:00,64.9,44.8,30.09,WNW,300,0.0,3.1,48,0.00,,,0.00,VWS V12.08,2013-06-01 08:16:00,
2013-06-01 04:26:00,64.9,44.8,30.09,NW,307,0.0,2.7,48,0.00,,,0.00,VWS V12.08,2013-06-01 08:26:00,
2013-06-01 04:31:00,64.9,45.3,30.09,SSW,209,0.0,3.6,49,0.00,,,0.00,VWS V12.08,2013-06-01 08:31:00,
2013-06-01 04:41:00,64.9,45.3,30.09,West,273,0.0,3.6,49,0.00,,,0.00,VWS V12.08,2013-06-01 08:41:00,
2013-06-01 04:46:00,64.9,45.3,30.09,ENE,59,0.0,0.0,49,0.00,,,0.00,VWS V12.08,2013-06-01 08:46:00,
2013-06-01 04:55:00,64.9,45.3,30.09,WSW,257,0.0,4.0,49,0.00,,,0.00,VWS V12.08,2013-06-01 08:55:00,
2013-06-01 05:03:00,64.9,45.9,30.09,ESE,119,0.0,4.0,50,0.00,,,0.00,VWS V12.08,2013-06-01 09:03:00,
2013-06-01 05:10:00,64.9,46.4,30.09,NNE,23,0.0,0.0,51,0.00,,,0.00,VWS V12.08,2013-06-01 09:10:00,
2013-06-01 05:15:00,64.8,46.7,30.09,NNW,327,0.0,2.7,52,0.00,,,0.00,VWS V12.08,2013-06-01 09:15:00,
2013-06-01 05:25:00,64.8,46.2,30.09,SW,225,0.0,2.7,51,0.00,,,0.00,VWS V12.08,2013-06-01 09:25:00,
2013-06-01 05:30:00,64.8,46.7,30.09,WNW,294,0.0,3.1,52,0.00,,,0.00,VWS V12.08,2013-06-01 09:30:00,
2013-06-01 05:40:00,64.8,47.2,30.09,SW,217,2.7,3.1,53,0.00,,,0.00,VWS V12.08,2013-06-01 09:40:00,
2013-06-01 05:45:00,64.8,47.2,30.09,WNW,286,3.1,4.0,53,0.00,,,0.00,VWS V12.08,2013-06-01 09:45:00,
2013-06-01 05:55:00,64.8,47.8,30.09,WSW,238,0.0,4.0,54,0.00,,,0.00,VWS V12.08,2013-06-01 09:55:00,
2013-06-01 06:03:00,64.8,48.2,30.09,WSW,240,2.2,4.0,55,0.00,,,0.00,VWS V12.08,2013-06-01 10:03:00,
2013-06-01 06:10:00,64.9,48.4,30.09,WNW,303,0.0,2.2,55,0.00,,,0.00,VWS V12.08,2013-06-01 10:10:00,
2013-06-01 06:15:00,64.9,48.9,30.09,West,267,0.0,2.7,56,0.00,,,0.00,VWS V12.08,2013-06-01 10:15:00,
2013-06-01 06:25:00,65.1,49.0,30.09,WSW,257,0.0,2.7,56,0.00,,,0.00,VWS V12.08,2013-06-01 10:25:00,
2013-06-01 06:31:00,65.3,49.7,30.09,WSW,243,0.0,2.7,57,0.00,,,0.00,VWS V12.08,2013-06-01 10:31:00,
2013-06-01 06:40:00,65.5,49.9,30.09,WNW,293,0.0,3.6,57,0.00,,,0.00,VWS V12.08,2013-06-01 10:40:00,
2013-06-01 06:46:00,65.7,50.5,30.09,SSW,196,3.1,4.0,58,0.00,,,0.00,VWS V12.08,2013-06-01 10:46:00,
2013-06-01 06:55:00,66.0,51.3,30.09,WSW,238,0.0,4.0,59,0.00,,,0.00,VWS V12.08,2013-06-01 10:55:00,
2013-06-01 07:03:00,66.0,50.8,30.09,SW,226,0.0,4.0,58,0.00,,,0.00,VWS V12.08,2013-06-01 11:03:00,
2013-06-01 07:10:00,66.2,51.0,30.09,West,262,2.2,3.6,58,0.00,,,0.00,VWS V12.08,2013-06-01 11:10:00,
2013-06-01 07:16:00,66.4,51.6,30.09,WSW,246,3.1,3.6,59,0.00,,,0.00,VWS V12.08,2013-06-01 11:16:00,
2013-06-01 07:25:00,66.6,51.8,30.09,SSW,196,2.2,3.6,59,0.00,,,0.00,VWS V12.08,2013-06-01 11:25:00,
2013-06-01 07:31:00,66.7,52.0,30.09,NNW,330,2.7,5.4,59,0.00,,,0.00,VWS V12.08,2013-06-01 11:31:00,
2013-06-01 07:40:00,66.9,52.6,30.09,NNW,333,2.7,5.4,60,0.00,,,0.00,VWS V12.08,2013-06-01 11:40:00,
2013-06-01 07:46:00,67.1,52.8,30.09,West,261,2.7,3.6,60,0.00,,,0.00,VWS V12.08,2013-06-01 11:46:00,
2013-06-01 07:55:00,67.5,53.1,30.09,SSW,204,0.0,3.6,60,0.00,,,0.00,VWS V12.08,2013-06-01 11:55:00,
2013-06-01 08:04:00,67.5,53.1,30.09,SW,219,2.2,5.4,60,0.00,,,0.00,VWS V12.08,2013-06-01 12:04:00,
2013-06-01 08:10:00,68.0,53.6,30.09,SW,226,2.2,3.6,60,0.00,,,0.00,VWS V12.08,2013-06-01 12:10:00,
2013-06-01 08:16:00,68.2,53.8,30.09,South,170,0.0,3.6,60,0.00,,,0.00,VWS V12.08,2013-06-01 12:16:00,
2013-06-01 08:25:00,68.7,54.3,30.09,WNW,297,0.0,3.1,60,0.00,,,0.00,VWS V12.08,2013-06-01 12:25:00,
2013-06-01 08:31:00,68.9,54.5,30.09,WSW,237,0.0,3.1,60,0.00,,,0.00,VWS V12.08,2013-06-01 12:31:00,
2013-06-01 08:40:00,69.1,55.1,30.09,NNW,348,4.0,5.4,61,0.00,,,0.00,VWS V12.08,2013-06-01 12:40:00,
2013-06-01 08:46:00,69.3,54.8,30.09,ENE,62,0.0,4.0,60,0.00,,,0.00,VWS V12.08,2013-06-01 12:46:00,
2013-06-01 08:55:00,70.0,55.9,30.09,NNW,342,0.0,4.0,61,0.00,,,0.00,VWS V12.08,2013-06-01 12:55:00,
2013-06-01 09:04:00,70.3,55.8,30.09,NNW,329,4.0,4.0,60,0.00,,,0.00,VWS V12.08,2013-06-01 13:04:00,
2013-06-01 09:10:00,70.9,56.3,30.09,NNE,24,0.0,4.5,60,0.00,,,0.00,VWS V12.08,2013-06-01 13:10:00,
2013-06-01 09:16:00,71.4,56.8,30.09,SW,234,2.7,4.5,60,0.00,,,0.00,VWS V12.08,2013-06-01 13:16:00,
2013-06-01 09:25:00,72.7,57.5,30.09,NNE,28,2.7,4.0,59,0.00,,,0.00,VWS V12.08,2013-06-01 13:25:00,
2013-06-01 09:31:00,73.0,57.4,30.09,WSW,242,2.7,4.0,58,0.00,,,0.00,VWS V12.08,2013-06-01 13:31:00,
2013-06-01 09:40:00,73.9,56.8,30.09,SW,221,0.0,4.9,55,0.00,,,0.00,VWS V12.08,2013-06-01 13:40:00,
2013-06-01 09:46:00,74.7,57.4,30.09,SSE,155,4.0,4.0,55,0.00,,,0.00,VWS V12.08,2013-06-01 13:46:00,
2013-06-01 09:55:00,75.9,57.6,30.09,NNW,342,2.7,5.8,53,0.00,,,0.00,VWS V12.08,2013-06-01 13:55:00,
2013-06-01 10:04:00,76.3,57.4,30.09,SSW,195,2.2,5.8,52,0.00,,,0.00,VWS V12.08,2013-06-01 14:04:00,
2013-06-01 10:11:00,77.4,55.0,30.09,WSW,248,2.2,4.0,46,0.00,,,0.00,VWS V12.08,2013-06-01 14:11:00,
2013-06-01 10:16:00,78.3,54.0,30.09,South,176,0.0,4.0,43,0.00,,,0.00,VWS V12.08,2013-06-01 14:16:00,
2013-06-01 10:26:00,78.8,55.1,30.09,NW,311,4.0,4.0,44,0.00,,,0.00,VWS V12.08,2013-06-01 14:26:00,
2013-06-01 10:31:00,77.9,53.0,30.09,NNW,338,2.7,5.4,42,0.00,,,0.00,VWS V12.08,2013-06-01 14:31:00,
2013-06-01 10:41:00,76.8,51.4,30.09,SW,234,2.7,5.4,41,0.00,,,0.00,VWS V12.08,2013-06-01 14:41:00,
2013-06-01 10:46:00,76.5,51.7,30.09,NNW,334,3.1,3.6,42,0.00,,,0.00,VWS V12.08,2013-06-01 14:46:00,
2013-06-01 10:56:00,76.5,51.0,30.09,NNW,332,3.1,5.8,41,0.00,,,0.00,VWS V12.08,2013-06-01 14:56:00,
2013-06-01 11:04:00,76.5,51.7,30.09,NW,305,2.2,5.8,42,0.00,,,0.00,VWS V12.08,2013-06-01 15:04:00,
2013-06-01 11:11:00,77.0,52.2,30.09,South,182,3.1,5.4,42,0.00,,,0.00,VWS V12.08,2013-06-01 15:11:00,
2013-06-01 11:16:00,77.9,53.6,30.09,South,184,2.2,5.4,43,0.00,,,0.00,VWS V12.08,2013-06-01 15:16:00,
2013-06-01 11:26:00,77.9,52.3,30.12,WNW,290,5.4,6.3,41,0.00,,,0.00,VWS V12.08,2013-06-01 15:26:00,
2013-06-01 11:31:00,78.1,52.5,30.12,NNW,340,3.6,6.3,41,0.00,,,0.00,VWS V12.08,2013-06-01 15:31:00,
2013-06-01 11:41:00,77.5,50.7,30.09,NNW,335,3.1,6.3,39,0.00,,,0.00,VWS V12.08,2013-06-01 15:41:00,
2013-06-01 11:46:00,77.5,51.3,30.09,SW,219,3.1,4.0,40,0.00,,,0.00,VWS V12.08,2013-06-01 15:46:00,
2013-06-01 11:55:00,78.3,52.0,30.09,West,266,3.6,4.9,40,0.00,,,0.00,VWS V12.08,2013-06-01 15:55:00,
2013-06-01 12:03:00,78.6,52.3,30.09,SW,214,2.2,4.9,40,0.00,,,0.00,VWS V12.08,2013-06-01 16:03:00,
2013-06-01 12:10:00,79.0,52.6,30.09,NE,37,2.7,4.9,40,0.00,,,0.00,VWS V12.08,2013-06-01 16:10:00,
2013-06-01 12:15:00,79.3,52.3,30.09,NNE,14,2.7,4.9,39,0.00,,,0.00,VWS V12.08,2013-06-01 16:15:00,
2013-06-01 12:25:00,79.2,49.9,30.09,South,179,2.7,4.9,36,0.00,,,0.00,VWS V12.08,2013-06-01 16:25:00,
2013-06-01 12:30:00,79.2,52.1,30.09,SE,129,0.0,4.9,39,0.00,,,0.00,VWS V12.08,2013-06-01 16:30:00,
2013-06-01 12:40:00,79.3,50.8,30.09,West,268,3.1,6.3,37,0.00,,,0.00,VWS V12.08,2013-06-01 16:40:00,
2013-06-01 12:45:00,79.5,51.7,30.09,SE,132,3.1,4.5,38,0.00,,,0.00,VWS V12.08,2013-06-01 16:45:00,
2013-06-01 12:55:00,79.9,51.3,30.09,NNW,327,3.1,4.9,37,0.00,,,0.00,VWS V12.08,2013-06-01 16:55:00,
2013-06-01 13:03:00,80.1,51.5,30.09,NNW,342,2.7,4.9,37,0.00,,,0.00,VWS V12.08,2013-06-01 17:03:00,
2013-06-01 13:10:00,80.6,51.2,30.09,South,171,0.0,4.5,36,0.00,,,0.00,VWS V12.08,2013-06-01 17:10:00,
2013-06-01 13:16:00,80.8,49.8,30.09,NNW,339,0.0,5.4,34,0.00,,,0.00,VWS V12.08,2013-06-01 17:16:00,
2013-06-01 13:25:00,81.0,50.8,30.09,WSW,251,2.7,4.9,35,0.00,,,0.00,VWS V12.08,2013-06-01 17:25:00,
2013-06-01 13:31:00,81.0,50.8,30.09,South,185,0.0,4.9,35,0.00,,,0.00,VWS V12.08,2013-06-01 17:31:00,
2013-06-01 13:40:00,81.0,50.8,30.09,ESE,114,2.7,5.4,35,0.00,,,0.00,VWS V12.08,2013-06-01 17:40:00,
2013-06-01 13:46:00,81.0,48.4,30.09,WSW,237,2.2,4.9,32,0.00,,,0.00,VWS V12.08,2013-06-01 17:46:00,
2013-06-01 13:55:00,80.2,47.7,30.09,WSW,257,3.6,4.9,32,0.00,,,0.00,VWS V12.08,2013-06-01 17:55:00,
2013-06-01 14:04:00,79.9,46.6,30.09,SE,127,2.2,4.9,31,0.00,,,0.00,VWS V12.08,2013-06-01 18:04:00,
2013-06-01 14:10:00,79.7,48.1,30.09,SE,133,4.0,4.0,33,0.00,,,0.00,VWS V12.08,2013-06-01 18:10:00,
2013-06-01 14:16:00,79.5,47.9,30.09,East,94,3.1,4.0,33,0.00,,,0.00,VWS V12.08,2013-06-01 18:16:00,
2013-06-01 14:25:00,79.0,46.6,30.06,SSW,213,3.1,4.0,32,0.00,,,0.00,VWS V12.08,2013-06-01 18:25:00,
2013-06-01 14:31:00,78.6,47.1,30.06,WSW,244,0.0,4.9,33,0.00,,,0.00,VWS V12.08,2013-06-01 18:31:00,
2013-06-01 14:40:00,77.9,45.7,30.06,South,183,2.7,6.3,32,0.00,,,0.00,VWS V12.08,2013-06-01 18:40:00,
2013-06-01 14:46:00,77.5,45.4,30.06,North,4,2.2,7.6,32,0.00,,,0.00,VWS V12.08,2013-06-01 18:46:00,
2013-06-01 14:55:00,77.0,45.7,30.06,SSE,163,2.2,7.6,33,0.00,,,0.00,VWS V12.08,2013-06-01 18:55:00,
2013-06-01 15:04:00,77.2,45.9,30.06,WSW,242,0.0,7.6,33,0.00,,,0.00,VWS V12.08,2013-06-01 19:04:00,
2013-06-01 15:10:00,77.0,45.7,30.06,West,259,0.0,5.4,33,0.00,,,0.00,VWS V12.08,2013-06-01 19:10:00,
2013-06-01 15:16:00,76.8,45.6,30.06,SW,233,4.0,5.4,33,0.00,,,0.00,VWS V12.08,2013-06-01 19:16:00,
2013-06-01 15:25:00,76.6,46.2,30.06,SE,136,0.0,3.6,34,0.00,,,0.00,VWS V12.08,2013-06-01 19:25:00,
2013-06-01 15:31:00,76.6,46.2,30.06,SSW,213,3.6,4.0,34,0.00,,,0.00,VWS V12.08,2013-06-01 19:31:00,
2013-06-01 15:40:00,76.5,46.8,30.06,South,172,2.7,4.0,35,0.00,,,0.00,VWS V12.08,2013-06-01 19:40:00,
2013-06-01 15:46:00,76.6,46.2,30.06,North,0,5.4,5.4,34,0.00,,,0.00,VWS V12.08,2013-06-01 19:46:00,
2013-06-01 15:55:00,76.8,45.6,30.06,SW,216,3.1,5.8,33,0.00,,,0.00,VWS V12.08,2013-06-01 19:55:00,
2013-06-01 16:04:00,76.8,45.6,30.06,SSW,199,0.0,5.8,33,0.00,,,0.00,VWS V12.08,2013-06-01 20:04:00,
2013-06-01 16:10:00,76.5,45.2,30.06,SW,217,2.7,5.8,33,0.00,,,0.00,VWS V12.08,2013-06-01 20:10:00,
2013-06-01 16:16:00,76.1,44.1,30.06,SSE,152,2.2,7.2,32,0.00,,,0.00,VWS V12.08,2013-06-01 20:16:00,
2013-06-01 16:25:00,75.7,45.4,30.03,North,0,3.1,5.8,34,0.00,,,0.00,VWS V12.08,2013-06-01 20:25:00,
2013-06-01 16:31:00,75.4,44.3,30.03,WSW,256,0.0,5.8,33,0.00,,,0.00,VWS V12.08,2013-06-01 20:31:00,
2013-06-01 16:40:00,74.8,43.8,30.06,SE,142,3.6,5.8,33,0.00,,,0.00,VWS V12.08,2013-06-01 20:40:00,
2013-06-01 16:46:00,74.7,44.5,30.06,WSW,253,0.0,4.0,34,0.00,,,0.00,VWS V12.08,2013-06-01 20:46:00,
2013-06-01 16:55:00,74.5,44.3,30.06,South,172,3.1,4.0,34,0.00,,,0.00,VWS V12.08,2013-06-01 20:55:00,
2013-06-01 17:04:00,74.3,44.9,30.06,SSW,209,0.0,4.0,35,0.00,,,0.00,VWS V12.08,2013-06-01 21:04:00,
2013-06-01 17:11:00,73.9,44.6,30.06,ENE,63,2.7,4.0,35,0.00,,,0.00,VWS V12.08,2013-06-01 21:11:00,
2013-06-01 17:16:00,73.9,43.8,30.06,SSW,205,2.2,4.0,34,0.00,,,0.00,VWS V12.08,2013-06-01 21:16:00,
2013-06-01 17:26:00,73.4,44.1,30.03,WSW,241,2.7,6.3,35,0.00,,,0.00,VWS V12.08,2013-06-01 21:26:00,
2013-06-01 17:31:00,73.0,44.5,30.03,SSW,210,2.2,6.3,36,0.00,,,0.00,VWS V12.08,2013-06-01 21:31:00,
2013-06-01 17:41:00,72.7,44.2,30.06,North,7,2.2,7.2,36,0.00,,,0.00,VWS V12.08,2013-06-01 21:41:00,
2013-06-01 17:47:00,72.5,44.8,30.06,SW,223,2.7,5.4,37,0.00,,,0.00,VWS V12.08,2013-06-01 21:47:00,
2013-06-01 17:56:00,72.1,44.5,30.06,NW,307,0.0,5.4,37,0.00,,,0.00,VWS V12.08,2013-06-01 21:56:00,
2013-06-01 18:04:00,72.1,44.5,30.06,East,80,0.0,5.4,37,0.00,,,0.00,VWS V12.08,2013-06-01 22:04:00,
2013-06-01 18:11:00,71.8,44.1,30.06,SW,219,2.2,4.0,37,0.00,,,0.00,VWS V12.08,2013-06-01 22:11:00,
2013-06-01 18:16:00,71.6,44.7,30.06,NE,42,3.1,4.0,38,0.00,,,0.00,VWS V12.08,2013-06-01 22:16:00,
2013-06-01 18:26:00,71.4,45.2,30.03,WSW,249,0.0,4.0,39,0.00,,,0.00,VWS V12.08,2013-06-01 22:26:00,
2013-06-01 18:32:00,71.2,45.0,30.03,SSW,202,2.2,4.0,39,0.00,,,0.00,VWS V12.08,2013-06-01 22:32:00,
2013-06-01 18:41:00,71.1,44.9,30.03,NNE,26,2.7,4.0,39,0.00,,,0.00,VWS V12.08,2013-06-01 22:41:00,
2013-06-01 18:46:00,70.9,44.7,30.03,NNW,346,0.0,3.1,39,0.00,,,0.00,VWS V12.08,2013-06-01 22:46:00,
2013-06-01 18:55:00,70.7,44.5,30.06,SSE,162,0.0,3.6,39,0.00,,,0.00,VWS V12.08,2013-06-01 22:55:00,
2013-06-01 19:03:00,70.5,44.4,30.06,SSW,199,3.6,3.6,39,0.00,,,0.00,VWS V12.08,2013-06-01 23:03:00,
2013-06-01 19:10:00,70.0,44.6,30.06,SW,218,0.0,3.6,40,0.00,,,0.00,VWS V12.08,2013-06-01 23:10:00,
2013-06-01 19:15:00,69.6,44.2,30.06,SSW,211,0.0,3.6,40,0.00,,,0.00,VWS V12.08,2013-06-01 23:15:00,
2013-06-01 19:25:00,68.9,43.6,30.03,SW,217,3.6,3.6,40,0.00,,,0.00,VWS V12.08,2013-06-01 23:25:00,
2013-06-01 19:30:00,68.5,43.9,30.03,WNW,300,2.7,4.9,41,0.00,,,0.00,VWS V12.08,2013-06-01 23:30:00,
2013-06-01 19:40:00,68.2,44.2,30.03,SW,220,4.9,4.9,42,0.00,,,0.00,VWS V12.08,2013-06-01 23:40:00,
2013-06-01 19:45:00,68.0,44.1,30.03,North,10,0.0,4.9,42,0.00,,,0.00,VWS V12.08,2013-06-01 23:45:00,
2013-06-01 19:55:00,67.6,44.4,30.03,WSW,247,0.0,4.9,43,0.00,,,0.00,VWS V12.08,2013-06-01 23:55:00,
2013-06-01 20:03:00,67.5,44.2,30.03,SW,220,0.0,4.9,43,0.00,,,0.00,VWS V12.08,2013-06-02 00:03:00,
2013-06-01 20:10:00,66.9,44.3,30.03,NNW,344,2.2,4.0,44,0.00,,,0.00,VWS V12.08,2013-06-02 00:10:00,
2013-06-01 20:16:00,66.7,44.2,30.03,NNW,335,3.1,4.0,44,0.00,,,0.00,VWS V12.08,2013-06-02 00:16:00,
2013-06-01 20:25:00,66.7,44.8,30.06,NW,316,2.2,4.0,45,0.00,,,0.00,VWS V12.08,2013-06-02 00:25:00,
2013-06-01 20:31:00,66.7,44.8,30.06,SSE,149,3.6,4.0,45,0.00,,,0.00,VWS V12.08,2013-06-02 00:31:00,
2013-06-01 20:40:00,66.7,44.8,30.06,WSW,252,3.1,4.0,45,0.00,,,0.00,VWS V12.08,2013-06-02 00:40:00,
2013-06-01 20:46:00,66.7,45.3,30.06,WNW,283,3.6,4.0,46,0.00,,,0.00,VWS V12.08,2013-06-02 00:46:00,
2013-06-01 20:55:00,66.6,45.2,30.06,East,93,0.0,4.0,46,0.00,,,0.00,VWS V12.08,2013-06-02 00:55:00,
2013-06-01 21:04:00,66.6,45.2,30.06,SSW,213,2.2,4.0,46,0.00,,,0.00,VWS V12.08,2013-06-02 01:04:00,
2013-06-01 21:10:00,66.6,45.2,30.06,ENE,74,0.0,5.8,46,0.00,,,0.00,VWS V12.08,2013-06-02 01:10:00,
2013-06-01 21:16:00,66.6,45.7,30.06,NE,34,0.0,5.8,47,0.00,,,0.00,VWS V12.08,2013-06-02 01:16:00,
2013-06-01 21:25:00,66.4,45.6,30.06,SSW,213,2.7,3.6,47,0.00,,,0.00,VWS V12.08,2013-06-02 01:25:00,
2013-06-01 21:31:00,66.4,45.6,30.06,SW,218,2.2,4.5,47,0.00,,,0.00,VWS V12.08,2013-06-02 01:31:00,
2013-06-01 21:40:00,66.2,46.0,30.06,WSW,252,0.0,4.5,48,0.00,,,0.00,VWS V12.08,2013-06-02 01:40:00,
2013-06-01 21:46:00,66.2,46.0,30.06,SW,234,5.4,5.4,48,0.00,,,0.00,VWS V12.08,2013-06-02 01:46:00,
2013-06-01 21:55:00,66.4,46.1,30.06,NNW,339,0.0,5.4,48,0.00,,,0.00,VWS V12.08,2013-06-02 01:55:00,
2013-06-01 22:03:00,66.4,46.7,30.06,South,171,2.7,5.8,49,0.00,,,0.00,VWS V12.08,2013-06-02 02:03:00,
2013-06-01 22:10:00,66.4,46.7,30.06,WSW,246,2.7,4.9,49,0.00,,,0.00,VWS V12.08,2013-06-02 02:10:00,
2013-06-01 22:16:00,66.4,46.7,30.06,SW,233,2.2,4.9,49,0.00,,,0.00,VWS V12.08,2013-06-02 02:16:00,
2013-06-01 22:25:00,66.4,46.7,30.06,NNE,16,0.0,4.0,49,0.00,,,0.00,VWS V12.08,2013-06-02 02:25:00,
2013-06-01 22:31:00,66.4,46.7,30.06,SE,142,3.6,5.8,49,0.00,,,0.00,VWS V12.08,2013-06-02 02:31:00,
2013-06-01 22:40:00,66.2,46.5,30.06,SW,222,0.0,5.8,49,0.00,,,0.00,VWS V12.08,2013-06-02 02:40:00,
2013-06-01 22:46:00,66.2,46.5,30.06,SSE,165,2.7,4.0,49,0.00,,,0.00,VWS V12.08,2013-06-02 02:46:00,
2013-06-01 22:55:00,66.0,46.9,30.06,SSW,194,0.0,4.0,50,0.00,,,0.00,VWS V12.08,2013-06-02 02:55:00,
2013-06-01 23:04:00,66.0,46.9,30.06,SSW,207,2.2,4.0,50,0.00,,,0.00,VWS V12.08,2013-06-02 03:04:00,
2013-06-01 23:10:00,65.8,46.7,30.06,WSW,243,0.0,3.1,50,0.00,,,0.00,VWS V12.08,2013-06-02 03:10:00,
2013-06-01 23:16:00,65.8,46.7,30.06,SSE,162,0.0,4.0,50,0.00,,,0.00,VWS V12.08,2013-06-02 03:16:00,
2013-06-01 23:25:00,65.8,47.2,30.06,South,171,0.0,3.1,51,0.00,,,0.00,VWS V12.08,2013-06-02 03:25:00,
2013-06-01 23:31:00,65.8,47.2,30.06,NW,319,0.0,3.6,51,0.00,,,0.00,VWS V12.08,2013-06-02 03:31:00,
2013-06-01 23:40:00,65.8,47.7,30.06,South,182,2.2,4.0,52,0.00,,,0.00,VWS V12.08,2013-06-02 03:40:00,
2013-06-01 23:46:00,65.8,47.7,30.06,NW,317,4.0,4.0,52,0.00,,,0.00,VWS V12.08,2013-06-02 03:46:00,
2013-06-01 23:55:00,65.8,48.2,30.06,ESE,110,0.0,5.4,53,0.00,,,0.00,VWS V12.08,2013-06-02 03:55:00,